{"data":{"norad_id":65034,"intl_designator":"2025-161V","name":"STARLINK-34610","alt_names":[],"object_type":"PAYLOAD","status":"ACTIVE","operator":null,"country":"US","launch_date":"2025-07-30","launch_site_code":"AFWTR","launch_vehicle":null,"mission":null,"orbit_class":"UNKNOWN","rcs_meters":null,"size_class":null,"mass_kg":null,"dimensions":null,"purposes":["comms"],"wikipedia_slug":null,"has_3d_model":false,"image_url":null,"decayed_at":null,"tle_current":{"epoch":"2026-09-20T20:01:57.617760Z","epoch_age_seconds":95305,"freshness":"FRESH","line1":"1 65034U 25161V   26263.83469465  .00024779  00000+0  74173-3 0  9990","line2":"2 65034  53.1597 105.9126 0001715  89.4922 270.6277 15.34414921 64131","mean_motion":15.34414921,"eccentricity":0.0001715,"inclination_deg":53.1597,"raan_deg":105.9126,"arg_perigee_deg":89.4922,"mean_anomaly_deg":270.6277,"bstar":0.00074173,"rev_number":6413,"period_min":93.846845484371,"perigee_km":461.48569571451,"apogee_km":463.83208870554,"semimajor_km":6840.79589221,"source":"CELESTRAK","updated_at":"2026-09-21T09:00:35.495367Z"}}}